Theta_e
299 293 292 294 300 306 308 319 319 318 331 329 329 337 337 344 350 353 355 357 356 361 360 359 358 358 359 359 359 358 357 357
294 293 296 299 302 305 312 319 323 322 321 334 340 338 344 350 353 352 354 355 359 360 360 359 358 357 358 359 360 359 357 356
288 293 297 302 305 305 304 308 317 322 325 329 339 347 350 351 352 350 351 352 356 360 360 359 358 357 357 359 360 359 357 355
287 290 298 303 305 305 305 308 310 325 328 329 342 344 348 350 348 350 350 354 354 359 359 359 358 357 356 357 359 359 358 356
287 292 294 301 305 304 304 305 308 331 326 331 335 342 347 348 349 349 351 352 352 353 356 359 358 358 356 356 358 358 357 356
289 290 291 299 304 305 307 308 324 334 323 324 334 343 346 348 348 348 350 350 350 351 351 352 354 358 357 355 356 357 357 356
286 291 292 296 298 304 313 321 332 328 331 336 337 344 343 343 344 345 347 349 350 350 350 349 351 353 356 354 354 356 355 356
290 294 293 295 296 302 308 326 326 329 333 335 338 339 337 337 337 340 342 346 348 349 349 349 352 350 348 349 349 349 349 349
292 295 294 294 295 299 306 313 326 326 328 331 335 334 334 335 337 338 342 344 346 347 348 347 348 349 346 345 346 345 346 345
293 295 294 293 298 297 299 301 310 320 331 331 331 331 331 332 335 338 340 342 345 348 347 347 347 348 346 344 343 342 342 342
299 297 296 298 297 297 298 303 305 305 321 331 330 331 332 333 334 336 337 342 344 345 345 343 346 345 341 341 341 340 340 340
298 296 295 294 296 296 299 303 304 317 326 330 330 330 330 332 332 331 334 338 342 341 340 339 339 338 338 338 338 337 337 338
299 298 295 296 294 295 300 302 301 305 329 330 331 331 330 331 331 330 330 333 334 334 334 336 334 335 334 335 336 334 335 337
293 298 297 295 289 296 300 299 300 301 327 329 333 335 335 332 331 330 330 331 334 336 333 332 330 332 334 335 336 336 337 339
291 298 296 295 288 296 299 298 299 301 324 327 332 331 334 336 333 332 333 334 336 335 335 334 334 334 337 339 340 341 343 343
289 291 294 293 290 293 296 297 299 306 321 326 329 328 334 335 335 336 336 337 340 340 340 341 343 343 342 343 344 345 345 345
291 294 291 287 292 294 295 295 297 303 320 324 327 329 334 334 334 335 335 335 335 333 335 337 339 341 338 338 345 346 344 345
290 294 290 288 289 294 293 295 299 308 318 322 322 326 331 334 333 334 334 335 333 333 334 335 338 338 335 330 335 336 338 336
288 291 291 289 286 290 299 309 308 313 317 321 324 324 327 330 330 332 334 334 335 334 334 335 337 334 330 328 332 333 334 331
294 287 283 288 280 286 295 305 308 309 314 317 322 325 326 328 327 330 330 330 331 334 333 335 337 336 330 328 324 332 329 330
Wind_Speed
5 5 9 7 6 9 3 7 4 3 2 2 3 3 7 6 12 13 13 11 11 17 18 19 20 18 16 15 15 14 14 13
4 10 7 7 5 6 2 2 3 4 3 5 6 4 6 13 13 13 13 9 13 16 17 19 19 18 15 14 14 13 13 13
4 10 4 6 6 2 2 2 3 4 3 3 3 9 15 13 13 14 13 6 11 14 16 17 18 18 15 14 13 13 12 12
13 7 6 5 6 4 3 4 5 3 2 0 9 10 12 15 14 13 14 10 7 13 13 15 17 17 15 14 12 11 11 10
3 18 6 5 3 5 4 5 7 7 4 1 7 9 11 12 12 13 14 11 5 6 8 12 15 15 13 12 12 10 9 8
6 7 10 4 6 4 9 13 0 7 6 7 7 15 11 10 12 12 13 12 11 6 5 5 7 14 13 12 11 10 9 9
7 8 5 3 5 5 2 4 1 3 3 1 20 16 13 13 13 11 12 12 11 9 7 5 5 9 10 12 11 10 9 8
6 6 6 4 5 2 2 3 3 2 4 13 18 17 17 17 17 15 17 17 14 11 10 8 6 5 5 5 3 3 4 4
3 5 4 3 3 2 3 4 6 4 5 15 16 14 14 13 11 11 14 11 15 13 8 8 6 5 2 2 3 2 4 3
4 1 2 3 7 3 5 6 4 2 3 13 15 16 14 13 12 10 9 11 12 11 7 7 4 6 5 4 3 3 4 5
12 7 6 4 9 6 9 9 9 10 7 16 14 13 9 8 9 9 8 8 12 13 9 7 6 5 3 2 2 3 3 3
4 5 4 2 7 3 7 5 9 7 2 9 11 10 8 9 9 9 8 7 9 11 9 6 5 5 3 3 1 1 1 3
16 8 6 5 10 22 9 7 10 8 5 8 9 13 11 9 11 13 9 9 9 9 8 9 8 5 4 3 3 3 3 4
6 15 8 5 20 12 9 7 11 10 7 9 4 8 7 9 11 12 12 11 10 9 8 6 5 4 4 4 4 4 3 3
4 16 10 16 1 8 8 10 10 9 8 9 7 5 7 11 10 12 13 15 11 10 9 8 6 3 2 3 4 1 1 3
8 8 15 16 8 5 4 8 11 9 9 10 10 6 6 11 12 11 11 11 11 10 11 9 6 4 4 3 1 1 2 3
9 7 7 3 14 14 4 5 8 7 8 11 11 8 10 10 12 13 12 14 13 13 11 10 4 4 4 4 2 3 4 8
3 5 6 8 9 16 4 6 8 10 8 12 8 10 12 14 12 13 16 16 13 14 13 11 9 7 5 5 4 3 5 7
2 2 3 7 2 6 2 1 4 5 7 11 19 17 14 16 13 8 14 16 15 15 16 14 11 9 8 7 3 1 7 4
6 1 6 3 4 5 5 3 5 8 7 14 14 13 13 15 11 11 11 7 6 9 8 5 7 8 8 4 7 3 6 3
Wind_Direction
148 179 210 218 219 246 244 279 262 259 192 62 304 62 152 134 144 130 132 138 151 152 143 139 135 135 137 136 132 132 130 128
145 220 245 209 210 174 168 330 278 287 110 83 356 164 132 130 133 121 140 132 153 152 145 142 139 137 140 138 135 135 135 134
203 240 233 234 272 153 181 286 294 298 230 108 44 98 126 129 128 128 139 115 141 152 148 145 140 139 144 145 143 143 144 141
211 228 228 245 235 290 227 213 273 204 124 323 130 144 150 139 134 133 146 128 138 155 154 147 143 144 151 150 148 146 145 144
197 221 255 214 194 229 272 275 267 140 143 268 178 161 153 138 130 136 142 140 112 133 156 148 143 146 152 152 153 150 150 147
215 187 244 227 193 205 201 260 174 142 194 223 180 152 134 126 124 133 141 145 161 127 125 135 146 149 154 159 157 155 159 159
197 152 225 230 194 202 225 235 191 192 193 192 133 133 137 139 145 140 151 152 160 159 141 141 138 158 156 166 165 164 177 176
202 192 179 195 196 202 185 216 231 210 86 127 140 151 160 165 164 161 162 169 171 169 163 145 147 129 128 152 143 170 161 182
256 217 206 195 283 263 160 203 243 213 163 156 154 166 177 177 173 168 162 162 170 175 159 144 130 136 112 126 141 162 179 183
215 242 73 185 302 297 222 232 219 246 183 160 167 179 183 177 166 154 167 163 159 158 152 152 129 160 170 159 158 178 184 188
246 273 292 309 275 266 253 257 288 288 186 182 181 171 165 175 158 141 154 156 170 164 165 160 141 162 130 159 176 183 188 188
258 245 262 245 258 204 265 225 247 283 137 179 158 158 152 149 156 141 146 148 158 159 150 135 132 144 153 147 193 226 210 218
236 242 234 169 267 236 236 306 297 287 111 117 137 162 167 167 159 141 139 140 143 149 149 155 153 147 154 179 181 204 224 220
228 210 234 175 248 253 225 196 247 265 153 134 124 127 133 154 149 141 139 141 142 151 142 147 146 153 157 169 193 207 209 215
251 206 200 191 233 201 224 190 223 248 159 146 126 107 122 129 129 140 145 142 139 141 149 133 119 137 210 201 175 214 187 237
213 199 203 211 254 311 228 178 205 230 160 155 142 137 118 119 122 127 136 131 116 115 122 118 110 113 98 74 22 226 223 255
228 230 159 174 201 248 232 223 226 230 155 158 150 153 131 127 129 129 139 134 132 129 132 122 110 104 82 46 12 355 237 232
209 182 145 175 193 236 174 230 201 195 156 154 139 155 151 151 151 157 162 154 146 143 146 138 144 139 131 149 99 84 2 18
215 138 163 142 180 192 216 260 263 251 143 163 164 166 169 167 171 165 171 166 170 174 174 168 165 142 148 157 110 260 89 30
285 102 171 151 225 255 198 201 251 232 195 166 176 179 173 173 185 182 194 190 179 167 188 187 200 162 159 170 146 151 104 132